Location: Austin
(30.3000°N, 97.7500°W)
Time: 11:27:52
(UTC-05:00)

Meteor 1-27 Rocket - Pass Details

Date: 26 May 2023
Orbit: 830 x 909 km, 81.3° (Epoch: 30 May)

Event Time Altitude Azimuth Distance (km) Brightness Sun altitude
Exits shadow 22:14:18 29° 175° (S) 1,483 4.6 -20.5°
Maximum altitude 22:17:12 75° 95° (E) 875 3.6 -21.0°
Drops below altitude 10° 22:22:50 10° 11° (NNE) 2,494 6.5 -21.9°
Sets 22:25:17 0° 10° (N) 3,446 7.3 -22.3°
